Weather History for Mount Ida, AR

Change the Weather History Date:

Monday, November 4, 2013

  Actual Average (KHOT) Record (KHOT)
Temperature  
Mean Temperature 52 °F -  
Max Temperature 55 °F 66 °F 84 °F (1987)
Min Temperature 48 °F 43 °F 21 °F (1991)
Degree Days  
Heating Degree Days 14    
Growing Degree Days 2 (Base 50)    
Moisture  
Dew Point 49 °F    
Average Humidity 88    
Maximum Humidity 100    
Minimum Humidity 63    
Precipitation  
Precipitation 0.35 in - - ()
Sea Level Pressure  
Sea Level Pressure 30.15 in    
Wind  
Wind Speed 2 mph (ESE)    
Max Wind Speed 9 mph    
Max Gust Speed 16 mph    
Visibility 5 miles    
Events Rain    
Averages and records for this station are not official NWS values.
T = Trace of Precipitation, MM = Missing Value Source: NWS Daily Summary

Daily Weather History Graph

Daily Weather History Graph

Search for Another Location

Airport:

Trip Planner

Search our weather history database for the weather conditions in past years. The results will help you decide how hot, cold, wet, or windy it might be!

Date:

Astronomy

Nov. 04, 2013 Rise Set
Actual Time 6:37 AM CST 5:17 PM CST
Civil Twilight 6:11 AM CST 5:43 PM CST
Nautical Twilight 5:41 AM CST 6:13 PM CST
Astronomical Twilight 5:12 AM CST 6:43 PM CST
Moon 7:46 AM CST (11/4) 6:25 PM CST (11/4)
Length of Visible Light 11h 32m
Length of Day
10h 40m
New Moon, 2% of the Moon is Illuminated
Nov 4
New Moon
Nov 9
First Quarter
Nov 17
Full
Nov 25
Last Quarter
Dec 2
New

Hourly Weather History & Observations

Time (CST) Temp. Dew Point Humidity Pressure Visibility Wind Dir Wind Speed Gust Speed Precip Events Conditions
12:53 AM 52.0 °F 39.9 °F 63% 30.07 in 10.0 mi SSE 9.2 mph 16.1 mph N/A   Clear
1:53 AM 52.0 °F 39.9 °F 63% 30.09 in 10.0 mi SSE 5.8 mph - N/A   Clear
2:53 AM 51.1 °F 42.1 °F 71% 30.12 in 10.0 mi Calm Calm - N/A   Clear
3:53 AM 48.9 °F 43.0 °F 80% 30.12 in 10.0 mi Calm Calm - N/A   Clear
4:53 AM 51.1 °F 42.1 °F 71% 30.11 in 10.0 mi Variable 4.6 mph - N/A   Clear
5:53 AM 50.0 °F 43.0 °F 77% 30.12 in 10.0 mi North 4.6 mph - N/A   Clear
6:53 AM 50.0 °F 44.1 °F 80% 30.12 in 10.0 mi Calm Calm - N/A   Clear
7:53 AM 51.1 °F 45.0 °F 80% 30.15 in 10.0 mi Calm Calm - N/A   Partly Cloudy
8:53 AM 53.1 °F 44.1 °F 71% 30.16 in 10.0 mi Calm Calm - 0.00 in Rain Light Rain
9:53 AM 55.0 °F 44.1 °F 67% 30.18 in 10.0 mi Variable 5.8 mph - 0.00 in   Overcast
10:53 AM 55.0 °F 46.9 °F 74% 30.16 in 10.0 mi Calm Calm - 0.00 in Rain Light Rain
11:53 AM 53.1 °F 50.0 °F 89% 30.15 in 5.0 mi Calm Calm - 0.02 in Rain Light Rain
12:53 PM 53.1 °F 51.1 °F 93% 30.14 in 6.0 mi Calm Calm - 0.03 in Rain Light Rain
1:53 PM 53.1 °F 51.1 °F 93% 30.14 in 4.0 mi Calm Calm - 0.03 in Rain Light Rain
2:53 PM 53.1 °F 51.1 °F 93% 30.14 in 3.0 mi Calm Calm - 0.03 in Rain Light Rain
3:06 PM 53.1 °F 51.1 °F 93% 30.13 in 2.5 mi Calm Calm - 0.01 in Rain Light Rain
3:14 PM 52.0 °F 51.1 °F 97% 30.13 in 3.0 mi East 3.5 mph - 0.02 in Rain Light Rain
3:53 PM 53.1 °F 52.0 °F 96% 30.14 in 3.0 mi Calm Calm - 0.07 in Rain Rain
4:53 PM 53.1 °F 52.0 °F 96% 30.15 in 3.0 mi Calm Calm - 0.05 in Rain Light Rain
5:53 PM 52.0 °F 52.0 °F 100% 30.15 in 4.0 mi Calm Calm - 0.01 in   Overcast
6:08 PM 52.0 °F 52.0 °F 100% 30.14 in 4.0 mi Calm Calm - N/A   Mostly Cloudy
6:53 PM 53.1 °F 52.0 °F 96% 30.17 in 5.0 mi Calm Calm - 0.01 in Rain Light Rain
7:36 PM 53.1 °F 52.0 °F 96% 30.16 in 2.5 mi Calm Calm - 0.03 in Rain Light Rain
7:53 PM 53.1 °F 52.0 °F 96% 30.17 in 2.0 mi Calm Calm - 0.04 in Rain Light Rain
8:09 PM 53.1 °F 52.0 °F 96% 30.17 in 3.0 mi Calm Calm - 0.00 in Rain Light Rain
8:18 PM 53.1 °F 52.0 °F 96% 30.17 in 2.0 mi Calm Calm - 0.00 in Rain Light Rain
8:53 PM 53.1 °F 52.0 °F 96% 30.17 in 2.0 mi Calm Calm - 0.03 in Rain Rain
9:40 PM 53.1 °F 53.1 °F 100% 30.17 in 3.0 mi Calm Calm - 0.03 in   Overcast
9:53 PM 53.1 °F 53.1 °F 100% 30.17 in 4.0 mi Calm Calm - 0.03 in Rain Light Rain
10:38 PM 54.0 °F 53.1 °F 97% 30.17 in 2.0 mi Calm Calm - 0.00 in   Overcast
10:53 PM 54.0 °F 53.1 °F 97% 30.17 in 1.2 mi Calm Calm - 0.00 in   Overcast
11:09 PM 54.0 °F 53.1 °F 97% 30.16 in 3.0 mi Calm Calm - 0.00 in Rain Light Rain
11:26 PM 54.0 °F 53.1 °F 97% 30.16 in 2.0 mi Calm Calm - 0.00 in Rain Light Rain
11:53 PM 54.0 °F 53.1 °F 97% 30.17 in 2.0 mi Calm Calm - 0.00 in Rain Light Rain